^^
Saratoga-Weather Station Historical Data
Daily Summary for November 25, 2020 Units:  Metric    English   Both
Daily Weekly Monthly Yearly Custom
  High: Low: Average:
Temperature: 6.8 °C 1.7 °C 4 °C
Dew Point: 5.6 °C 1.1 °C 3.3 °C
Humidity: 96% 89% 95%
Wind Speed: 6.4km/h 0km/h 1km/h
Wind Gust: 11.3km/h - -
Wind- - ESE
Pressure: 1020.7 hPa 1018.0 hPa -
Precipitation: 0.0 mm    
Historical Graphs
 
 
Tabular Data for November 25, 2020
Time Temperature Dew Point Pressure Wind Wind Speed Wind Gust Humidity Rainfall Rate (Hourly) solar
00:04 3.9 °C 3.2 °C 1020.0 hPa East 3.2 km/h 11.3 km/h 95% 0.0 mm 0 W/m2
00:09 3.9 °C 3.2 °C 1020.0 hPa Calm   4.8 km/h 95% 0.0 mm 0 W/m2
00:14 3.9 °C 3.2 °C 1019.6 hPa East 3.2 km/h 11.3 km/h 95% 0.0 mm 0 W/m2
00:19 3.9 °C 3.3 °C 1019.6 hPa SE 1.4 km/h 3.2 km/h 96% 0.0 mm 0 W/m2
00:24 3.9 °C 3.3 °C 1019.6 hPa Calm   11.3 km/h 96% 0.0 mm 0 W/m2
00:29 3.9 °C 3.3 °C 1019.6 hPa Calm   3.2 km/h 96% 0.0 mm 0 W/m2
00:34 3.9 °C 3.3 °C 1019.6 hPa East 3.2 km/h 4.8 km/h 96% 0.0 mm 0 W/m2
00:39 3.9 °C 3.3 °C 1019.6 hPa East 3.2 km/h 4.8 km/h 96% 0.0 mm 0 W/m2
00:44 3.9 °C 3.3 °C 1019.6 hPa ESE 3.2 km/h 6.4 km/h 96% 0.0 mm 0 W/m2
00:49 3.9 °C 3.3 °C 1019.6 hPa East 3.2 km/h 6.4 km/h 96% 0.0 mm 0 W/m2
00:54 3.9 °C 3.3 °C 1019.3 hPa ESE 6.4 km/h 6.4 km/h 96% 0.0 mm 0 W/m2
00:59 3.8 °C 3.2 °C 1019.3 hPa ESE 3.2 km/h 6.4 km/h 96% 0.0 mm 0 W/m2
01:04 3.8 °C 3.2 °C 1019.3 hPa East 4.7 km/h 6.4 km/h 96% 0.0 mm 0 W/m2
01:09 3.8 °C 3.2 °C 1019.3 hPa SE 3.2 km/h 6.4 km/h 96% 0.0 mm 0 W/m2
01:14 3.8 °C 3.2 °C 1019.3 hPa ESE 1.4 km/h 6.4 km/h 96% 0.0 mm 0 W/m2
01:20 3.8 °C 3.2 °C 1019.3 hPa East 4.7 km/h 8 km/h 96% 0.0 mm 0 W/m2
01:25 3.8 °C 3.2 °C 1019.3 hPa East 1.4 km/h 9.7 km/h 96% 0.0 mm 0 W/m2
01:30 3.8 °C 3.2 °C 1019.3 hPa ESE 4.7 km/h 8 km/h 96% 0.0 mm 0 W/m2
01:35 3.8 °C 3.2 °C 1019.0 hPa East 3.2 km/h 4.8 km/h 96% 0.0 mm 0 W/m2
01:40 3.8 °C 3.2 °C 1019.0 hPa Calm   4.8 km/h 96% 0.0 mm 0 W/m2
01:45 3.8 °C 3.2 °C 1019.0 hPa East 4.7 km/h 11.3 km/h 96% 0.0 mm 0 W/m2
01:50 3.8 °C 3.2 °C 1019.0 hPa East 3.2 km/h 6.4 km/h 96% 0.0 mm 0 W/m2
01:55 3.7 °C 3.1 °C 1019.0 hPa ESE 1.4 km/h 4.8 km/h 96% 0.0 mm 0 W/m2
02:00 3.8 °C 3.2 °C 1019.0 hPa Calm   3.2 km/h 96% 0.0 mm 0 W/m2
02:05 3.8 °C 3.2 °C 1019.0 hPa ESE 1.4 km/h 1.6 km/h 96% 0.0 mm 0 W/m2
02:10 3.8 °C 3.2 °C 1019.0 hPa ENE 1.4 km/h 4.8 km/h 96% 0.0 mm 0 W/m2
02:15 3.8 °C 3.2 °C 1019.0 hPa East 1.4 km/h 3.2 km/h 96% 0.0 mm 0 W/m2
02:20 3.8 °C 3.2 °C 1019.0 hPa East 1.4 km/h 3.2 km/h 96% 0.0 mm 0 W/m2
02:25 3.8 °C 3.2 °C 1018.6 hPa ESE 1.4 km/h 4.8 km/h 96% 0.0 mm 0 W/m2
02:30 3.8 °C 3.2 °C 1019.0 hPa SE 1.4 km/h 6.4 km/h 96% 0.0 mm 0 W/m2
02:35 3.8 °C 3.2 °C 1019.0 hPa East 1.4 km/h 4.8 km/h 96% 0.0 mm 0 W/m2
02:40 3.8 °C 3.2 °C 1019.0 hPa East 1.4 km/h 3.2 km/h 96% 0.0 mm 0 W/m2
02:45 3.8 °C 3.2 °C 1018.6 hPa ESE 3.2 km/h 3.2 km/h 96% 0.0 mm 0 W/m2
02:50 3.8 °C 3.2 °C 1018.6 hPa ENE 3.2 km/h 3.2 km/h 96% 0.0 mm 0 W/m2
02:55 3.8 °C 3.2 °C 1019.0 hPa ENE 1.4 km/h 4.8 km/h 96% 0.0 mm 0 W/m2
03:00 3.8 °C 3.2 °C 1019.0 hPa ENE 3.2 km/h 3.2 km/h 96% 0.0 mm 0 W/m2
03:05 3.8 °C 3.2 °C 1018.6 hPa East 3.2 km/h 4.8 km/h 96% 0.0 mm 0 W/m2
03:11 3.8 °C 3.2 °C 1018.6 hPa SE 3.2 km/h 3.2 km/h 96% 0.0 mm 0 W/m2
03:16 3.8 °C 3.2 °C 1018.6 hPa Calm   4.8 km/h 96% 0.0 mm 0 W/m2
03:21 3.7 °C 3.1 °C 1018.6 hPa East 3.2 km/h 6.4 km/h 96% 0.0 mm 0 W/m2
03:26 3.7 °C 3.1 °C 1018.6 hPa East 1.4 km/h 4.8 km/h 96% 0.0 mm 0 W/m2
03:31 3.7 °C 3.1 °C 1018.6 hPa ESE 1.4 km/h 6.4 km/h 96% 0.0 mm 0 W/m2
03:36 3.7 °C 3.1 °C 1018.6 hPa East 3.2 km/h 3.2 km/h 96% 0.0 mm 0 W/m2
03:41 3.7 °C 3.1 °C 1018.3 hPa East 3.2 km/h 4.8 km/h 96% 0.0 mm 0 W/m2
03:46 3.7 °C 3.1 °C 1018.3 hPa ESE 1.4 km/h 1.6 km/h 96% 0.0 mm 0 W/m2
03:51 3.7 °C 3.1 °C 1018.6 hPa East 1.4 km/h 6.4 km/h 96% 0.0 mm 0 W/m2
03:56 3.7 °C 3.1 °C 1018.3 hPa East 1.4 km/h 4.8 km/h 96% 0.0 mm 0 W/m2
04:01 3.7 °C 3.1 °C 1018.3 hPa ESE 3.2 km/h 6.4 km/h 96% 0.0 mm 0 W/m2
04:06 3.7 °C 3.1 °C 1018.3 hPa ESE 3.2 km/h 9.7 km/h 96% 0.0 mm 0 W/m2
04:11 3.6 °C 3 °C 1018.3 hPa East 3.2 km/h 4.8 km/h 96% 0.0 mm 0 W/m2
04:16 3.7 °C 3.1 °C 1018.3 hPa East 1.4 km/h 9.7 km/h 96% 0.0 mm 0 W/m2
04:21 3.6 °C 3 °C 1018.3 hPa East 3.2 km/h 3.2 km/h 96% 0.0 mm 0 W/m2
04:26 3.6 °C 3 °C 1018.3 hPa SE 1.4 km/h 11.3 km/h 96% 0.0 mm 0 W/m2
04:31 3.6 °C 3 °C 1018.3 hPa ENE 3.2 km/h 4.8 km/h 96% 0.0 mm 0 W/m2
04:36 3.6 °C 3 °C 1018.0 hPa SE 1.4 km/h 3.2 km/h 96% 0.0 mm 0 W/m2
04:41 3.6 °C 3 °C 1018.3 hPa ENE 1.4 km/h 4.8 km/h 96% 0.0 mm 0 W/m2
04:46 3.6 °C 3 °C 1018.3 hPa ESE 3.2 km/h 4.8 km/h 96% 0.0 mm 0 W/m2
04:51 3.6 °C 3 °C 1018.0 hPa ESE 3.2 km/h 9.7 km/h 96% 0.0 mm 0 W/m2
04:56 3.6 °C 3 °C 1018.0 hPa ESE 3.2 km/h 6.4 km/h 96% 0.0 mm 0 W/m2
05:01 3.6 °C 3 °C 1018.0 hPa Calm   1.6 km/h 96% 0.0 mm 0 W/m2
05:06 3.6 °C 3 °C 1018.3 hPa SE 1.4 km/h 8 km/h 96% 0.0 mm 0 W/m2
05:11 3.6 °C 3 °C 1018.3 hPa Calm   3.2 km/h 96% 0.0 mm 0 W/m2
05:16 3.6 °C 3 °C 1018.3 hPa ESE 3.2 km/h 4.8 km/h 96% 0.0 mm 0 W/m2
05:21 3.6 °C 3 °C 1018.3 hPa ESE 3.2 km/h 4.8 km/h 96% 0.0 mm 0 W/m2
05:26 3.6 °C 3 °C 1018.3 hPa East 1.4 km/h 6.4 km/h 96% 0.0 mm 0 W/m2
05:31 3.6 °C 3 °C 1018.3 hPa SE 3.2 km/h 9.7 km/h 96% 0.0 mm 0 W/m2
05:36 3.6 °C 3 °C 1018.3 hPa ESE 3.2 km/h 3.2 km/h 96% 0.0 mm 0 W/m2
05:41 3.6 °C 3 °C 1018.3 hPa ESE 1.4 km/h 9.7 km/h 96% 0.0 mm 0 W/m2
05:46 3.6 °C 3 °C 1018.3 hPa ENE 3.2 km/h 4.8 km/h 96% 0.0 mm 0 W/m2
05:51 3.6 °C 3 °C 1018.3 hPa East 1.4 km/h 4.8 km/h 96% 0.0 mm 0 W/m2
05:56 3.6 °C 3 °C 1018.3 hPa East 1.4 km/h 1.6 km/h 96% 0.0 mm 0 W/m2
06:01 3.6 °C 3 °C 1018.3 hPa ESE 1.4 km/h 3.2 km/h 96% 0.0 mm 0 W/m2
06:06 3.6 °C 3 °C 1018.3 hPa ESE 1.4 km/h 1.6 km/h 96% 0.0 mm 0 W/m2
06:11 3.6 °C 3 °C 1018.3 hPa Calm   3.2 km/h 96% 0.0 mm 0 W/m2
06:16 3.6 °C 3 °C 1018.3 hPa ENE 1.4 km/h 4.8 km/h 96% 0.0 mm 0 W/m2
06:21 3.6 °C 3 °C 1018.3 hPa Calm   4.8 km/h 96% 0.0 mm 0 W/m2
06:26 3.6 °C 3 °C 1018.3 hPa East 1.4 km/h 3.2 km/h 96% 0.0 mm 0 W/m2
06:31 3.5 °C 2.9 °C 1018.3 hPa East 1.4 km/h 3.2 km/h 96% 0.0 mm 0 W/m2
06:36 3.5 °C 2.9 °C 1018.3 hPa SE 1.4 km/h 1.6 km/h 96% 0.0 mm 0 W/m2
06:41 3.5 °C 2.9 °C 1018.3 hPa ESE 3.2 km/h 4.8 km/h 96% 0.0 mm 0 W/m2
06:46 3.5 °C 2.9 °C 1018.3 hPa SE 1.4 km/h 4.8 km/h 96% 0.0 mm 0 W/m2
06:51 3.4 °C 2.8 °C 1018.3 hPa SE 4.7 km/h 6.4 km/h 96% 0.0 mm 0 W/m2
06:56 3.4 °C 2.8 °C 1018.3 hPa Calm     96% 0.0 mm 0 W/m2
07:01 3.4 °C 2.8 °C 1018.3 hPa East 6.4 km/h 6.4 km/h 96% 0.0 mm 0 W/m2
07:06 3.4 °C 2.8 °C 1018.3 hPa East 1.4 km/h 9.7 km/h 96% 0.0 mm 0 W/m2
07:11 3.4 °C 2.8 °C 1018.3 hPa East 3.2 km/h 4.8 km/h 96% 0.0 mm 0 W/m2
07:16 3.4 °C 2.8 °C 1018.3 hPa ESE 1.4 km/h 1.6 km/h 96% 0.0 mm 0 W/m2
07:21 3.3 °C 2.7 °C 1018.3 hPa ESE 1.4 km/h 3.2 km/h 96% 0.0 mm 0 W/m2
07:26 3.3 °C 2.7 °C 1018.6 hPa ESE 1.4 km/h 4.8 km/h 96% 0.0 mm 0 W/m2
07:31 3.3 °C 2.7 °C 1018.3 hPa Calm   3.2 km/h 96% 0.0 mm 0 W/m2
07:36 3.3 °C 2.7 °C 1018.3 hPa East 3.2 km/h 3.2 km/h 96% 0.0 mm 0 W/m2
07:41 3.3 °C 2.7 °C 1018.6 hPa ESE 1.4 km/h 4.8 km/h 96% 0.0 mm 0 W/m2
07:46 3.2 °C 2.6 °C 1018.6 hPa SE 1.4 km/h 4.8 km/h 96% 0.0 mm 0 W/m2
07:51 3.2 °C 2.6 °C 1018.6 hPa SE 1.4 km/h 3.2 km/h 96% 0.0 mm 0 W/m2
07:56 3.2 °C 2.6 °C 1018.6 hPa Calm   3.2 km/h 96% 0.0 mm 0 W/m2
08:01 3.2 °C 2.6 °C 1018.6 hPa Calm   3.2 km/h 96% 0.0 mm 0 W/m2
08:06 3.2 °C 2.6 °C 1019.0 hPa East 1.4 km/h 3.2 km/h 96% 0.0 mm 0 W/m2
08:11 3.2 °C 2.6 °C 1019.0 hPa ESE 1.4 km/h 9.7 km/h 96% 0.0 mm 5 W/m2
08:16 3.2 °C 2.6 °C 1019.0 hPa ESE 3.2 km/h 4.8 km/h 96% 0.0 mm 5 W/m2
08:21 3.1 °C 2.5 °C 1019.0 hPa Calm   3.2 km/h 96% 0.0 mm 7 W/m2
08:26 3.1 °C 2.5 °C 1019.0 hPa East 1.4 km/h 4.8 km/h 96% 0.0 mm 9 W/m2
08:31 3.1 °C 2.5 °C 1019.0 hPa East 1.4 km/h 4.8 km/h 96% 0.0 mm 9 W/m2
08:36 3.1 °C 2.5 °C 1019.0 hPa ENE 6.4 km/h 6.4 km/h 96% 0.0 mm 12 W/m2
08:41 3 °C 2.4 °C 1019.0 hPa Calm   6.4 km/h 96% 0.0 mm 16 W/m2
08:46 3 °C 2.4 °C 1019.0 hPa East 1.4 km/h 4.8 km/h 96% 0.0 mm 16 W/m2
08:51 3 °C 2.4 °C 1019.0 hPa East 1.4 km/h 6.4 km/h 96% 0.0 mm 16 W/m2
08:56 3 °C 2.4 °C 1019.0 hPa East 1.4 km/h 1.6 km/h 96% 0.0 mm 21 W/m2
09:01 3 °C 2.4 °C 1019.3 hPa Calm   4.8 km/h 96% 0.0 mm 25 W/m2
09:06 3 °C 2.4 °C 1019.3 hPa ESE 3.2 km/h 3.2 km/h 96% 0.0 mm 25 W/m2
09:11 3 °C 2.4 °C 1019.3 hPa East 1.4 km/h 6.4 km/h 96% 0.0 mm 26 W/m2
09:16 3 °C 2.4 °C 1019.3 hPa ESE 3.2 km/h 4.8 km/h 96% 0.0 mm 32 W/m2
09:21 2.9 °C 2.3 °C 1019.3 hPa East 3.2 km/h 6.4 km/h 96% 0.0 mm 40 W/m2
09:26 2.9 °C 2.3 °C 1019.3 hPa East 3.2 km/h 3.2 km/h 96% 0.0 mm 39 W/m2
09:32 2.9 °C 2.3 °C 1019.3 hPa ESE 1.4 km/h 3.2 km/h 96% 0.0 mm 44 W/m2
09:37 3 °C 2.4 °C 1019.3 hPa ESE 3.2 km/h 3.2 km/h 96% 0.0 mm 35 W/m2
09:42 3 °C 2.4 °C 1019.3 hPa East 1.4 km/h 4.8 km/h 96% 0.0 mm 37 W/m2
09:47 3.1 °C 2.5 °C 1019.3 hPa ENE 3.2 km/h 3.2 km/h 96% 0.0 mm 42 W/m2
09:52 3.1 °C 2.5 °C 1019.3 hPa East 1.4 km/h 4.8 km/h 96% 0.0 mm 37 W/m2
09:57 3 °C 2.4 °C 1019.3 hPa ENE 1.4 km/h 3.2 km/h 96% 0.0 mm 47 W/m2
10:02 3.1 °C 2.5 °C 1019.3 hPa ESE 3.2 km/h 3.2 km/h 96% 0.0 mm 51 W/m2
10:07 3.1 °C 2.5 °C 1019.3 hPa East 1.4 km/h 3.2 km/h 96% 0.0 mm 62 W/m2
10:17 3.1 °C 2.5 °C 1019.6 hPa East 1.4 km/h 3.2 km/h 96% 0.0 mm 51 W/m2
10:22 3.2 °C 2.6 °C 1019.6 hPa ESE 3.2 km/h 3.2 km/h 96% 0.0 mm 56 W/m2
10:27 3.2 °C 2.6 °C 1019.6 hPa NE 1.4 km/h 8 km/h 96% 0.0 mm 65 W/m2
10:32 3.2 °C 2.6 °C 1019.6 hPa NE 1.4 km/h 1.6 km/h 96% 0.0 mm 62 W/m2
10:37 3.2 °C 2.6 °C 1019.6 hPa Calm   8 km/h 96% 0.0 mm 77 W/m2
10:42 3.2 °C 2.6 °C 1019.6 hPa ENE 3.2 km/h 3.2 km/h 96% 0.0 mm 84 W/m2
10:47 3.3 °C 2.7 °C 1019.6 hPa ENE 1.4 km/h 3.2 km/h 96% 0.0 mm 76 W/m2
10:52 3.3 °C 2.7 °C 1019.6 hPa SE 3.2 km/h 4.8 km/h 96% 0.0 mm 63 W/m2
10:57 3.3 °C 2.7 °C 1019.3 hPa East 3.2 km/h 4.8 km/h 96% 0.0 mm 70 W/m2
11:02 3.3 °C 2.7 °C 1019.6 hPa East 1.4 km/h 4.8 km/h 96% 0.0 mm 76 W/m2
11:07 3.2 °C 2.6 °C 1019.6 hPa Calm   3.2 km/h 96% 0.0 mm 74 W/m2
11:12 3.3 °C 2.7 °C 1019.3 hPa East 3.2 km/h 4.8 km/h 96% 0.0 mm 93 W/m2
11:22 3.3 °C 2.7 °C 1019.3 hPa East 1.4 km/h 3.2 km/h 96% 0.0 mm 97 W/m2
11:27 3.4 °C 2.8 °C 1019.3 hPa NE 1.4 km/h 3.2 km/h 96% 0.0 mm 105 W/m2
11:32 3.5 °C 2.9 °C 1019.3 hPa Calm   3.2 km/h 96% 0.0 mm 120 W/m2
11:37 3.6 °C 3 °C 1019.3 hPa East 3.2 km/h 3.2 km/h 96% 0.0 mm 141 W/m2
11:42 3.7 °C 3.1 °C 1019.3 hPa Calm   1.6 km/h 96% 0.0 mm 123 W/m2
11:47 3.7 °C 3.1 °C 1019.0 hPa Calm     96% 0.0 mm 79 W/m2
11:52 3.8 °C 3.2 °C 1019.0 hPa Calm     96% 0.0 mm 69 W/m2
11:57 3.8 °C 3.2 °C 1019.0 hPa Calm   1.6 km/h 96% 0.0 mm 109 W/m2
12:02 3.9 °C 3.3 °C 1019.0 hPa NNW 3.2 km/h 4.8 km/h 96% 0.0 mm 104 W/m2
12:07 4.1 °C 3.4 °C 1019.0 hPa Calm     95% 0.0 mm 86 W/m2
12:12 4.2 °C 3.6 °C 1019.0 hPa Calm   3.2 km/h 96% 0.0 mm 54 W/m2
12:17 4.3 °C 3.6 °C 1019.0 hPa Calm     95% 0.0 mm 70 W/m2
12:22 4.4 °C 3.7 °C 1019.0 hPa ENE 1.4 km/h 1.6 km/h 95% 0.0 mm 74 W/m2
12:27 4.6 °C 3.9 °C 1019.0 hPa SSW 1.4 km/h 3.2 km/h 95% 0.0 mm 72 W/m2
12:32 4.7 °C 3.8 °C 1019.0 hPa Calm   1.6 km/h 94% 0.0 mm 70 W/m2
12:37 4.7 °C 3.8 °C 1019.0 hPa Calm   3.2 km/h 94% 0.0 mm 70 W/m2
12:42 4.8 °C 3.9 °C 1019.0 hPa Calm   1.6 km/h 94% 0.0 mm 70 W/m2
12:47 4.9 °C 4 °C 1019.0 hPa Calm   3.2 km/h 94% 0.0 mm 58 W/m2
12:52 5 °C 4.1 °C 1019.0 hPa Calm   3.2 km/h 94% 0.0 mm 56 W/m2
12:57 5.2 °C 4.2 °C 1019.0 hPa Calm     93% 0.0 mm 60 W/m2
13:02 5.2 °C 4.2 °C 1019.0 hPa Calm   3.2 km/h 93% 0.0 mm 63 W/m2
13:07 5.3 °C 4.3 °C 1019.0 hPa Calm     93% 0.0 mm 63 W/m2
13:12 5.4 °C 4.4 °C 1018.6 hPa Calm     93% 0.0 mm 63 W/m2
13:17 5.4 °C 4.2 °C 1018.6 hPa Calm     92% 0.0 mm 69 W/m2
13:22 5.6 °C 4.4 °C 1018.6 hPa Calm     92% 0.0 mm 74 W/m2
13:27 5.6 °C 4.4 °C 1018.6 hPa Calm   1.6 km/h 92% 0.0 mm 81 W/m2
13:32 5.8 °C 4.6 °C 1018.6 hPa Calm     92% 0.0 mm 90 W/m2
13:37 5.9 °C 4.5 °C 1018.6 hPa East 3.2 km/h 3.2 km/h 91% 0.0 mm 97 W/m2
13:42 6 °C 4.6 °C 1019.0 hPa Calm   1.6 km/h 91% 0.0 mm 90 W/m2
13:47 6.2 °C 4.7 °C 1018.6 hPa Calm     90% 0.0 mm 83 W/m2
13:52 6.2 °C 4.7 °C 1018.6 hPa Calm   1.6 km/h 90% 0.0 mm 77 W/m2
13:57 6.3 °C 4.8 °C 1018.6 hPa Calm     90% 0.0 mm 72 W/m2
14:02 6.4 °C 4.9 °C 1018.6 hPa Calm     90% 0.0 mm 69 W/m2
14:07 6.4 °C 4.7 °C 1018.6 hPa Calm     89% 0.0 mm 67 W/m2
14:13 6.5 °C 4.8 °C 1018.6 hPa Calm     89% 0.0 mm 67 W/m2
14:18 6.6 °C 5.1 °C 1018.3 hPa Calm     90% 0.0 mm 63 W/m2
14:23 6.6 °C 5.1 °C 1018.3 hPa Calm     90% 0.0 mm 60 W/m2
14:28 6.6 °C 5.1 °C 1018.6 hPa Calm     90% 0.0 mm 54 W/m2
14:33 6.7 °C 5.2 °C 1018.3 hPa Calm     90% 0.0 mm 49 W/m2
14:38 6.6 °C 5.1 °C 1018.3 hPa Calm     90% 0.0 mm 42 W/m2
14:48 6.6 °C 5.2 °C 1018.3 hPa Calm     91% 0.0 mm 40 W/m2
14:53 6.6 °C 5.2 °C 1018.3 hPa Calm     91% 0.0 mm 35 W/m2
14:58 6.6 °C 5.2 °C 1018.3 hPa Calm     91% 0.0 mm 33 W/m2
15:03 6.5 °C 5.1 °C 1018.3 hPa Calm     91% 0.0 mm 33 W/m2
15:08 6.5 °C 5.1 °C 1018.3 hPa Calm     91% 0.0 mm 37 W/m2
15:13 6.4 °C 5 °C 1018.3 hPa Calm     91% 0.0 mm 35 W/m2
15:18 6.4 °C 5.2 °C 1018.3 hPa Calm     92% 0.0 mm 39 W/m2
15:23 6.5 °C 5.3 °C 1018.3 hPa Calm     92% 0.0 mm 46 W/m2
15:28 6.6 °C 5.4 °C 1018.3 hPa Calm     92% 0.0 mm 53 W/m2
15:33 6.7 °C 5.5 °C 1018.3 hPa Calm   1.6 km/h 92% 0.0 mm 54 W/m2
15:38 6.7 °C 5.5 °C 1018.3 hPa Calm     92% 0.0 mm 53 W/m2
15:43 6.8 °C 5.6 °C 1018.3 hPa Calm     92% 0.0 mm 46 W/m2
15:48 6.8 °C 5.6 °C 1018.3 hPa Calm     92% 0.0 mm 39 W/m2
15:53 6.8 °C 5.6 °C 1018.3 hPa Calm     92% 0.0 mm 32 W/m2
15:58 6.8 °C 5.6 °C 1018.3 hPa Calm     92% 0.0 mm 28 W/m2
16:03 6.8 °C 5.6 °C 1018.3 hPa Calm     92% 0.0 mm 25 W/m2
16:08 6.7 °C 5.5 °C 1018.3 hPa Calm     92% 0.0 mm 21 W/m2
16:13 6.7 °C 5.6 °C 1018.3 hPa Calm     93% 0.0 mm 18 W/m2
16:18 6.7 °C 5.6 °C 1018.3 hPa Calm     93% 0.0 mm 16 W/m2
16:23 6.7 °C 5.5 °C 1018.6 hPa Calm     92% 0.0 mm 12 W/m2
16:28 6.6 °C 5.4 °C 1018.6 hPa Calm     92% 0.0 mm 11 W/m2
16:33 6.6 °C 5.4 °C 1018.3 hPa Calm     92% 0.0 mm 7 W/m2
16:38 6.4 °C 5.4 °C 1018.3 hPa Calm     93% 0.0 mm 5 W/m2
16:43 6.3 °C 5.3 °C 1018.3 hPa Calm     93% 0.0 mm 0 W/m2
16:48 6.3 °C 5.1 °C 1018.3 hPa Calm     92% 0.0 mm 0 W/m2
16:53 6.2 °C 5.2 °C 1018.3 hPa Calm     93% 0.0 mm 0 W/m2
16:58 6.1 °C 5.1 °C 1018.6 hPa Calm     93% 0.0 mm 0 W/m2
17:03 6 °C 5 °C 1018.6 hPa Calm     93% 0.0 mm 0 W/m2
17:08 5.9 °C 4.9 °C 1018.6 hPa Calm     93% 0.0 mm 0 W/m2
17:13 5.8 °C 4.8 °C 1018.6 hPa Calm     93% 0.0 mm 0 W/m2
17:18 5.8 °C 4.8 °C 1018.6 hPa Calm     93% 0.0 mm 0 W/m2
17:23 5.7 °C 4.8 °C 1018.6 hPa Calm   1.6 km/h 94% 0.0 mm 0 W/m2
17:28 5.7 °C 4.8 °C 1018.6 hPa Calm     94% 0.0 mm 0 W/m2
17:33 5.6 °C 4.7 °C 1018.6 hPa Calm   1.6 km/h 94% 0.0 mm 0 W/m2
17:38 5.5 °C 4.6 °C 1018.6 hPa Calm     94% 0.0 mm 0 W/m2
17:43 5.4 °C 4.5 °C 1018.6 hPa Calm     94% 0.0 mm 0 W/m2
17:48 5.3 °C 4.4 °C 1018.6 hPa Calm     94% 0.0 mm 0 W/m2
17:53 5.3 °C 4.4 °C 1018.6 hPa Calm     94% 0.0 mm 0 W/m2
17:58 5.2 °C 4.3 °C 1018.6 hPa Calm     94% 0.0 mm 0 W/m2
18:04 5.1 °C 4.2 °C 1019.0 hPa Calm     94% 0.0 mm 0 W/m2
18:09 5 °C 4.1 °C 1019.0 hPa Calm     94% 0.0 mm 0 W/m2
18:14 4.9 °C 4 °C 1019.0 hPa Calm     94% 0.0 mm 0 W/m2
18:19 4.9 °C 4 °C 1019.0 hPa Calm     94% 0.0 mm 0 W/m2
18:24 4.8 °C 3.9 °C 1019.0 hPa Calm     94% 0.0 mm 0 W/m2
18:29 4.7 °C 3.8 °C 1019.0 hPa Calm     94% 0.0 mm 0 W/m2
18:34 4.7 °C 4 °C 1019.0 hPa Calm     95% 0.0 mm 0 W/m2
18:39 4.7 °C 4 °C 1019.0 hPa Calm     95% 0.0 mm 0 W/m2
18:44 4.7 °C 4 °C 1019.0 hPa Calm     95% 0.0 mm 0 W/m2
18:49 4.7 °C 4 °C 1019.0 hPa Calm     95% 0.0 mm 0 W/m2
18:54 4.7 °C 4 °C 1019.0 hPa Calm     95% 0.0 mm 0 W/m2
18:59 4.7 °C 4 °C 1019.0 hPa Calm     95% 0.0 mm 0 W/m2
19:09 4.5 °C 3.8 °C 1019.0 hPa Calm     95% 0.0 mm 0 W/m2
19:14 4.4 °C 3.7 °C 1019.0 hPa Calm     95% 0.0 mm 0 W/m2
19:19 4.3 °C 3.6 °C 1019.0 hPa Calm     95% 0.0 mm 0 W/m2
19:24 4.3 °C 3.6 °C 1019.0 hPa Calm     95% 0.0 mm 0 W/m2
19:29 4.2 °C 3.5 °C 1019.0 hPa Calm     95% 0.0 mm 0 W/m2
19:34 4.1 °C 3.4 °C 1019.3 hPa Calm     95% 0.0 mm 0 W/m2
19:39 4 °C 3.3 °C 1019.0 hPa Calm     95% 0.0 mm 0 W/m2
19:44 3.9 °C 3.2 °C 1019.3 hPa Calm     95% 0.0 mm 0 W/m2
19:49 3.8 °C 3.1 °C 1019.3 hPa Calm     95% 0.0 mm 0 W/m2
19:54 3.8 °C 3.1 °C 1019.3 hPa Calm     95% 0.0 mm 0 W/m2
19:59 3.7 °C 3 °C 1019.3 hPa NE 1.4 km/h 1.6 km/h 95% 0.0 mm 0 W/m2
20:04 3.7 °C 3 °C 1019.3 hPa Calm     95% 0.0 mm 0 W/m2
20:09 3.7 °C 3 °C 1019.3 hPa Calm     95% 0.0 mm 0 W/m2
20:14 3.7 °C 3 °C 1019.3 hPa Calm     95% 0.0 mm 0 W/m2
20:19 3.6 °C 2.9 °C 1019.3 hPa Calm     95% 0.0 mm 0 W/m2
20:24 3.5 °C 2.8 °C 1019.3 hPa Calm     95% 0.0 mm 0 W/m2
20:29 3.4 °C 2.7 °C 1019.3 hPa Calm     95% 0.0 mm 0 W/m2
20:34 3.4 °C 2.7 °C 1019.3 hPa Calm     95% 0.0 mm 0 W/m2
20:39 3.3 °C 2.6 °C 1019.6 hPa Calm     95% 0.0 mm 0 W/m2
20:44 3.3 °C 2.6 °C 1019.6 hPa Calm     95% 0.0 mm 0 W/m2
20:49 3.2 °C 2.6 °C 1019.6 hPa Calm     96% 0.0 mm 0 W/m2
20:54 3.2 °C 2.6 °C 1019.6 hPa Calm     96% 0.0 mm 0 W/m2
20:59 3.2 °C 2.5 °C 1019.6 hPa Calm     95% 0.0 mm 0 W/m2
21:04 3.2 °C 2.6 °C 1019.6 hPa Calm     96% 0.0 mm 0 W/m2
21:09 3.1 °C 2.5 °C 1019.6 hPa Calm     96% 0.0 mm 0 W/m2
21:14 3.1 °C 2.5 °C 1019.6 hPa Calm     96% 0.0 mm 0 W/m2
21:19 3.1 °C 2.5 °C 1019.6 hPa Calm     96% 0.0 mm 0 W/m2
21:24 2.9 °C 2.3 °C 1019.6 hPa Calm     96% 0.0 mm 0 W/m2
21:29 2.9 °C 2.3 °C 1019.6 hPa Calm     96% 0.0 mm 0 W/m2
21:34 2.8 °C 2.2 °C 1019.6 hPa Calm     96% 0.0 mm 0 W/m2
21:39 2.8 °C 2.2 °C 1019.6 hPa Calm     96% 0.0 mm 0 W/m2
21:44 2.7 °C 2.1 °C 1020.0 hPa Calm     96% 0.0 mm 0 W/m2
21:49 2.7 °C 2.1 °C 1020.0 hPa Calm     96% 0.0 mm 0 W/m2
21:54 2.6 °C 2 °C 1020.0 hPa Calm     96% 0.0 mm 0 W/m2
21:59 2.6 °C 2 °C 1020.0 hPa Calm     96% 0.0 mm 0 W/m2
22:04 2.5 °C 1.9 °C 1020.0 hPa Calm     96% 0.0 mm 0 W/m2
22:09 2.4 °C 1.8 °C 1020.0 hPa Calm     96% 0.0 mm 0 W/m2
22:14 2.4 °C 1.8 °C 1020.3 hPa Calm     96% 0.0 mm 0 W/m2
22:19 2.4 °C 1.8 °C 1020.3 hPa Calm     96% 0.0 mm 0 W/m2
22:25 2.4 °C 1.8 °C 1020.3 hPa Calm     96% 0.0 mm 0 W/m2
22:30 2.3 °C 1.7 °C 1020.3 hPa Calm     96% 0.0 mm 0 W/m2
22:35 2.2 °C 1.6 °C 1020.3 hPa Calm     96% 0.0 mm 0 W/m2
22:40 2.1 °C 1.5 °C 1020.3 hPa Calm     96% 0.0 mm 0 W/m2
22:45 2.1 °C 1.5 °C 1020.3 hPa Calm     96% 0.0 mm 0 W/m2
22:50 2 °C 1.4 °C 1020.3 hPa Calm     96% 0.0 mm 0 W/m2
22:55 2 °C 1.4 °C 1020.3 hPa Calm     96% 0.0 mm 0 W/m2
23:00 2 °C 1.4 °C 1020.3 hPa Calm     96% 0.0 mm 0 W/m2
23:05 2 °C 1.4 °C 1020.3 hPa Calm     96% 0.0 mm 0 W/m2
23:10 2 °C 1.4 °C 1020.3 hPa Calm     96% 0.0 mm 0 W/m2
23:15 1.9 °C 1.3 °C 1020.3 hPa Calm     96% 0.0 mm 0 W/m2
23:20 1.9 °C 1.3 °C 1020.3 hPa Calm     96% 0.0 mm 0 W/m2
23:25 1.9 °C 1.3 °C 1020.3 hPa Calm     96% 0.0 mm 0 W/m2
23:30 2.1 °C 1.5 °C 1020.7 hPa Calm     96% 0.0 mm 0 W/m2
23:35 2 °C 1.4 °C 1020.7 hPa Calm     96% 0.0 mm 0 W/m2
23:40 1.9 °C 1.3 °C 1020.7 hPa Calm     96% 0.0 mm 0 W/m2
23:45 1.8 °C 1.2 °C 1020.7 hPa Calm     96% 0.0 mm 0 W/m2
23:50 1.8 °C 1.2 °C 1020.7 hPa Calm     96% 0.0 mm 0 W/m2
23:55 1.7 °C 1.1 °C 1020.7 hPa Calm     96% 0.0 mm 0 W/m2
Juneau County Weather
Compliments of Weather Underground - 4 mb